星链-3984 (STARLINK-3984 )

导读 | 豆包AI

STARLINK-3984是美国于2022年5月14日发射的星链卫星,隶属于SpaceX打造的星链低轨互联网星座项目。星链计划旨在为全球提供覆盖广泛的高速卫星互联网服务,该卫星入轨后承担着传输网络信号、扩展星座覆盖范围的任务,助力星链系统完成全球组网布局,推进全球全域互联网络的构建。

Basic Information
目录编号:
52621
目录名称:
STARLINK-3984
国际标识:
2022-052Z
轨道中心:
EARTH
卫星名称:
星链-3984
卫星全名:
星链-3984 (STARLINK-3984 )
卫星状态:
在轨 (已飞行1401 天)
发射日期:
2022-05-14 UTC
国别 :
美国 (US)
星等 :
--
Orbit Information
数据来源 国际轨道数据 AOE轨道数据
星历时间 2026-03-14T20:04:44+0800
15小时前
查看轨道信息
2026-03-12T09:00:00+0800
3天前
查看轨道信息
半长轴 6917.888km 6917.885km
偏心率 0.0001214 0.0001174
轨道倾角 53.218° 53.217°
近地点辐角 94.057° 81.402°
升交点赤经 247.512° 258.564°
平近点角 266.056° 220.320°
近地点 538.911km 538.935km
远地点 540.591km 540.561km
周期 95.438分钟 95.438分钟
每日圈数 15.088377 15.088385
Detailed Information
固有亮度:
5
最大亮度:
2.5
卫星平台:
Starlink v1.5
覆盖范围:
全球
运营商:
太空探索技术公司
运营商所在国:
美国
制造商(研发单位):
太空探索技术公司
制造商所在国:
美国
使用方式:
暂无
Satellite Introduction
星链(Starlink)计划是由太空探索技术公司(SpaceX)提出的一个巨型低轨卫星互联网星座项目,计划在2019年至2024年间在太空搭建由约1.2万颗卫星组成的“星链”网络,其中1584颗将部署在地球上空550千米处的近地轨道,并从2020年开始工作。该卫星仍在工作。
2D Orbit Map
3D Orbit Map
Orbit Altitude Analysis Chart
Orbit Inclination Analysis Chart
Orbit Comprehensive Analysis Chart
View Comprehensive Chart